Home   Weather   Salzwedel   Past weeks

Flag for Germany Past Weather in Salzwedel, Saxony-Anhalt, Germany — Yesterday and Last 2 Weeks

Now
27 °F

Passing clouds.


Feels Like: 27 °F
Forecast: 16 / 30 °F
Wind: 2 mph from Southwest

Location: Fassberg

Current Time: Jan 18, 2017 at 11:33:07 pm

Latest Report: Jan 18, 2017 at 10:20 pm


Visibility: 4 mi

Pressure: 30.69 "Hg

Humidity: 93%

Dew Point: 25 °F

Location of SalzwedelLocation

Past Weather in Salzwedel — Graph

°F

Salzwedel Temperature Yesterday

Maximum temperature yesterday: 28 °F (at 2:20 pm)
Minimum temperature yesterday: 14 °F (at 1:20 am)
Average temperature yesterday: 22 °F

High & Low Weather Summary for the Past Weeks

 TemperatureHumidityPressure
High43 °F (Jan 4, 1:20 am)100% (Jan 7, 6:12 pm)30.77 "Hg (Jan 7, 6:12 pm)
Low7 °F (Jan 6, 8:20 am)55% (Jan 4, 9:20 pm)28.97 "Hg (Jan 13, 5:20 am)
Average30 °F88%30.04 "Hg
* Reported Jan 3 10:20 pm — Jan 18 10:20 pm, Salzwedel, Weather by CustomWeather, © 2017

Note: Actual official high and low records may vary slightly from our data, if they occured in-between our weather recording intervals... More about our weather records

Advertising

Salzwedel Weather History for the Previous 24 Hours

Scroll right to see more
 ConditionsComfort  
Time TempWeatherWind HumidityBarometerVisibility
10:20 pm
Wed, Jan 18
27 °FPassing clouds.2 mph93%30.69 "Hg4 mi
9:20 pm27 °FIce fog.3 mph93%30.69 "Hg3 mi
8:20 pm27 °FIce fog.5 mph93%30.69 "Hg3 mi
7:40 pm27 °FIce fog.2 mph93%30.69 "Hg3 mi
7:20 pm27 °FIce fog.2 mph93%30.72 "Hg2 mi
6:20 pm25 °FIce fog.1 mph100%30.72 "Hg2 mi
5:20 pm28 °FIce fog.2 mph86%30.72 "Hg2 mi
5:00 pm28 °FIce fog.3 mph86%30.72 "Hg3 mi
4:20 pm28 °FIce fog.2 mph86%30.72 "Hg3 mi
3:20 pm28 °FBroken clouds.1 mph86%30.72 "Hg4 mi
2:34 pm28 °FIce fog.3 mph86%30.72 "Hg3 mi
2:20 pm28 °FIce fog.3 mph86%30.72 "Hg3 mi
1:28 pm28 °FIce fog.5 mph86%30.72 "Hg3 mi
12:20 pm27 °FIce fog.5 mph93%30.72 "Hg2 mi
11:20 am27 °FIce fog.3 mph93%30.74 "Hg2 mi
10:20 am27 °FIce fog.5 mph93%30.72 "Hg1 mi
9:20 am25 °FIce fog.3 mph93%30.72 "Hg1 mi
8:20 am25 °FIce fog.3 mph93%30.72 "Hg1 mi
7:20 am25 °FIce fog.3 mph93%30.69 "Hg1 mi
6:47 am23 °FIce fog.3 mph100%30.69 "Hg1 mi
6:20 am23 °FIce fog.3 mph100%30.69 "Hg1 mi
5:30 am23 °FIce fog.2 mph100%30.69 "Hg1 mi
4:20 am23 °FIce fog.2 mph100%30.72 "Hg1 mi
3:20 am25 °FIce fog.3 mph93%30.72 "Hg1 mi
2:20 am25 °FIce fog.3 mph93%30.72 "Hg1 mi
1:20 am25 °FIce fog.3 mph93%30.72 "Hg1 mi
12:20 am25 °FIce fog.5 mph100%30.69 "Hg1 mi
11:20 pm
Tue, Jan 17
25 °FIce fog.1 mph93%30.72 "Hg1 mi
Weather by CustomWeather, © 2017

See weather overviewHow to use our weather pages